• In Hungary
  • List of Countries
  • For 7 days
  • Water Temperature
  • Satellite Maps
  • Weather Map
  • News
  • Weather Widgets
  • user-avatar
    Login

    Hourly Weather Simbirskiy

    Today, 16 July, Monday

    Time Temperature Precipitation Wind Pressure Humidity
    00:00 +20°C° 0 mm 4 mps 740 mmHg 89%
    01:00 +20°C° 0 mm 5 mps 740 mmHg 89%
    02:00 +19°C° 0 mm 5 mps 741 mmHg 89%
    03:00 +19°C° 0 mm 4 mps 741 mmHg 90%
    04:00 +18°C° 0 mm 4 mps 741 mmHg 90%
    05:00 +19°C° 0 mm 4 mps 741 mmHg 88%
    06:00 +20°C° 0 mm 5 mps 741 mmHg 86%
    07:00 +21°C° 0 mm 5 mps 742 mmHg 84%
    08:00 +22°C° 0 mm 5 mps 742 mmHg 78%
    09:00 +25°C° 0 mm 5 mps 742 mmHg 72%
    10:00 +26°C° 0 mm 5 mps 742 mmHg 66%
    11:00 +27°C° 0 mm 5 mps 742 mmHg 64%
    12:00 +27°C° 0 mm 5 mps 741 mmHg 62%
    13:00 +28°C° 0 mm 5 mps 741 mmHg 60%
    14:00 +28°C° 0 mm 5 mps 741 mmHg 61%
    15:00 +28°C° 0 mm 5 mps 741 mmHg 61%
    16:00 +28°C° 0 mm 5 mps 741 mmHg 62%
    17:00 +27°C° 0 mm 5 mps 741 mmHg 66%
    18:00 +26°C° 0 mm 4 mps 741 mmHg 71%
    19:00 +25°C° 0 mm 4 mps 741 mmHg 75%
    20:00 +23°C° 0 mm 4 mps 741 mmHg 76%
    21:00 +22°C° 0 mm 5 mps 741 mmHg 76%
    22:00 +21°C° 0 mm 5 mps 741 mmHg 77%
    23:00 +21°C° 0 mm 5 mps 741 mmHg 75%

    Tomorrow, 17 July, Tuesday

    Time Temperature Precipitation Wind Pressure Humidity
    00:00 +21°C° 0 mm 6 mps 741 mmHg 74%
    01:00 +21°C° 0 mm 6 mps 741 mmHg 72%
    02:00 +21°C° 0 mm 6 mps 741 mmHg 70%
    03:00 +21°C° 0 mm 6 mps 741 mmHg 67%
    04:00 +21°C° 0 mm 6 mps 741 mmHg 65%
    05:00 +21°C° 0 mm 6 mps 741 mmHg 68%
    06:00 +21°C° 0 mm 6 mps 741 mmHg 71%
    07:00 +21°C° 0 mm 6 mps 741 mmHg 74%
    08:00 +22°C° 0 mm 6 mps 741 mmHg 74%
    09:00 +23°C° 0 mm 6 mps 741 mmHg 73%
    10:00 +23°C° 0 mm 6 mps 741 mmHg 73%
    11:00 +26°C° 0 mm 6 mps 740 mmHg 69%
    12:00 +27°C° 0 mm 7 mps 740 mmHg 66%
    13:00 +28°C° 0 mm 7 mps 740 mmHg 63%
    14:00 +29°C° 0 mm 6 mps 740 mmHg 63%
    15:00 +30°C° 0 mm 6 mps 740 mmHg 62%
    16:00 +30°C° 0 mm 6 mps 739 mmHg 62%
    17:00 +29°C° 0.1 mm 5 mps 739 mmHg 65%
    18:00 +28°C° 0.1 mm 5 mps 739 mmHg 68%
    19:00 +26°C° 0.1 mm 5 mps 739 mmHg 71%
    20:00 +25°C° 0.7 mm 5 mps 739 mmHg 74%
    21:00 +23°C° 0.7 mm 5 mps 739 mmHg 77%
    22:00 +22°C° 0.7 mm 5 mps 739 mmHg 80%
    23:00 +22°C° 2.7 mm 5 mps 739 mmHg 82%

    Day after tomorrow, 18 July, Wednesday

    Time Temperature Precipitation Wind Pressure Humidity
    00:00 +21°C° 2.7 mm 5 mps 739 mmHg 84%
    01:00 +20°C° 2.7 mm 6 mps 739 mmHg 86%
    02:00 +20°C° 0.1 mm 6 mps 739 mmHg 82%
    03:00 +20°C° 0.1 mm 6 mps 739 mmHg 77%
    04:00 +21°C° 0.1 mm 6 mps 739 mmHg 73%
    05:00 +21°C° 0 mm 5 mps 739 mmHg 73%
    06:00 +21°C° 0 mm 5 mps 739 mmHg 72%
    07:00 +22°C° 0 mm 5 mps 739 mmHg 72%
    08:00 +23°C° 0.1 mm 5 mps 740 mmHg 71%
    09:00 +26°C° 0.1 mm 4 mps 740 mmHg 69%
    10:00 +27°C° 0.1 mm 4 mps 740 mmHg 68%
    11:00 +28°C° 0.4 mm 4 mps 740 mmHg 67%
    12:00 +29°C° 0.4 mm 4 mps 740 mmHg 65%
    13:00 +31°C° 0.4 mm 3 mps 740 mmHg 64%
    14:00 +30°C° 1.3 mm 3 mps 740 mmHg 67%
    15:00 +29°C° 1.3 mm 3 mps 740 mmHg 71%
    16:00 +28°C° 1.3 mm 3 mps 740 mmHg 74%
    17:00 +27°C° 1.7 mm 3 mps 740 mmHg 79%
    18:00 +25°C° 1.7 mm 3 mps 740 mmHg 83%
    19:00 +24°C° 1.7 mm 3 mps 740 mmHg 88%
    20:00 +23°C° 1 mm 2 mps 741 mmHg 88%
    21:00 +23°C° 1 mm 2 mps 741 mmHg 89%
    22:00 +21°C° 1 mm 2 mps 741 mmHg 90%
    23:00 +21°C° 0.6 mm 2 mps 741 mmHg 90%

    19 July, Thursday

    Time Temperature Precipitation Wind Pressure Humidity
    00:00 +20°C° 0.6 mm 2 mps 741 mmHg 90%
    01:00 +20°C° 0.6 mm 3 mps 741 mmHg 90%
    02:00 +20°C° 0.1 mm 3 mps 741 mmHg 89%
    03:00 +19°C° 0.1 mm 2 mps 741 mmHg 87%
    04:00 +19°C° 0.1 mm 2 mps 742 mmHg 85%
    05:00 +20°C° 0 mm 2 mps 742 mmHg 83%
    06:00 +21°C° 0 mm 2 mps 742 mmHg 81%
    07:00 +23°C° 0 mm 2 mps 742 mmHg 79%
    08:00 +25°C° 0 mm 2 mps 742 mmHg 74%
    09:00 +26°C° 0 mm 3 mps 742 mmHg 69%
    10:00 +28°C° 0 mm 3 mps 742 mmHg 64%
    11:00 +29°C° 0 mm 2 mps 742 mmHg 60%
    12:00 +30°C° 0 mm 2 mps 742 mmHg 57%
    13:00 +31°C° 0 mm 2 mps 742 mmHg 54%
    14:00 +31°C° 0 mm 2 mps 742 mmHg 54%
    15:00 +31°C° 0 mm 2 mps 742 mmHg 55%
    16:00 +31°C° 0 mm 2 mps 741 mmHg 55%
    17:00 +30°C° 0 mm 2 mps 741 mmHg 61%
    18:00 +29°C° 0 mm 2 mps 741 mmHg 67%
    19:00 +28°C° 0 mm 2 mps 741 mmHg 73%
    20:00 +26°C° 0 mm 2 mps 741 mmHg 77%
    21:00 +24°C° 0 mm 2 mps 741 mmHg 80%
    22:00 +23°C° 0 mm 2 mps 742 mmHg 83%
    23:00 +21°C° 0 mm 2 mps 741 mmHg 84%

    20 July, Friday

    Time Temperature Precipitation Wind Pressure Humidity
    00:00 +21°C° 0 mm 2 mps 741 mmHg 84%
    01:00 +20°C° 0 mm 2 mps 741 mmHg 85%
    02:00 +20°C° 0 mm 2 mps 741 mmHg 85%
    03:00 +19°C° 0 mm 3 mps 741 mmHg 85%
    04:00 +19°C° 0 mm 3 mps 741 mmHg 85%
    05:00 +20°C° 0 mm 3 mps 741 mmHg 82%
    06:00 +21°C° 0 mm 3 mps 741 mmHg 80%
    07:00 +22°C° 0 mm 4 mps 741 mmHg 77%
    08:00 +23°C° 0 mm 4 mps 741 mmHg 72%
    09:00 +26°C° 0 mm 4 mps 741 mmHg 67%
    10:00 +28°C° 0 mm 4 mps 740 mmHg 62%
    11:00 +29°C° 0 mm 4 mps 740 mmHg 60%
    12:00 +30°C° 0 mm 4 mps 740 mmHg 57%
    13:00 +32°C° 0 mm 4 mps 740 mmHg 54%
    14:00 +32°C° 0 mm 4 mps 740 mmHg 55%
    15:00 +32°C° 0 mm 4 mps 740 mmHg 56%
    16:00 +32°C° 0 mm 4 mps 740 mmHg 57%
    17:00 +30°C° 0 mm 3 mps 739 mmHg 63%
    18:00 +29°C° 0 mm 3 mps 739 mmHg 68%
    19:00 +28°C° 0 mm 3 mps 739 mmHg 74%
    20:00 +26°C° 0 mm 3 mps 739 mmHg 76%
    21:00 +25°C° 0 mm 4 mps 739 mmHg 78%
    22:00 +23°C° 0 mm 4 mps 739 mmHg 80%
    23:00 +22°C° 0 mm 4 mps 739 mmHg 81%

    21 July, Saturday

    Time Temperature Precipitation Wind Pressure Humidity
    00:00 +22°C° 0 mm 4 mps 739 mmHg 81%
    01:00 +21°C° 0 mm 4 mps 739 mmHg 82%
    02:00 +21°C° 0 mm 5 mps 739 mmHg 81%
    03:00 +21°C° 0 mm 5 mps 739 mmHg 81%
    04:00 +21°C° 0 mm 5 mps 739 mmHg 80%
    05:00 +21°C° 0 mm 6 mps 739 mmHg 79%
    06:00 +22°C° 0 mm 6 mps 739 mmHg 79%
    07:00 +22°C° 0 mm 6 mps 739 mmHg 78%
    08:00 +24°C° 0 mm 7 mps 739 mmHg 74%
    09:00 +26°C° 0 mm 7 mps 739 mmHg 69%
    10:00 +28°C° 0 mm 7 mps 739 mmHg 65%
    11:00 +29°C° 0 mm 7 mps 739 mmHg 63%
    12:00 +29°C° 0 mm 7 mps 739 mmHg 60%
    13:00 +30°C° 0 mm 7 mps 739 mmHg 58%
    14:00 +30°C° 0.1 mm 7 mps 739 mmHg 58%
    15:00 +30°C° 0.1 mm 6 mps 739 mmHg 59%
    16:00 +30°C° 0.1 mm 6 mps 739 mmHg 60%
    17:00 +29°C° 0.1 mm 6 mps 739 mmHg 64%
    18:00 +28°C° 0.1 mm 5 mps 739 mmHg 69%
    19:00 +27°C° 0.1 mm 5 mps 739 mmHg 73%
    20:00 +26°C° 0 mm 6 mps 740 mmHg 73%
    21:00 +24°C° 0 mm 6 mps 740 mmHg 73%
    22:00 +23°C° 0 mm 7 mps 740 mmHg 73%
    23:00 +22°C° 0 mm 7 mps 740 mmHg 71%
    Show more